Wind_Speed
27 29 31 33 34 36 37 38 39 40 41 42 44 45 46 47 48 49 50 51 53 54 55 57 58 60 62 64 65 67 70 72 75 77 79 82 83 85 87 88 89 89 89
30 32 33 36 38 40 41 42 42 43 43 44 45 47 48 50 51 52 54 55 56 57 59 60 62 64 66 68 70 72 74 76 78 80 82 84 87 90 92 94 96 97 97
34 35 37 38 41 43 45 46 47 46 47 47 48 49 51 52 54 56 57 58 60 61 63 64 66 68 70 72 73 75 77 80 82 84 86 88 91 93 95 98 101 104 105
37 38 40 42 44 46 48 50 51 51 50 50 51 52 53 55 57 58 60 62 63 65 67 68 70 71 73 75 76 78 80 82 84 87 89 92 93 96 98 101 105 109 112
40 41 43 45 47 49 51 53 54 54 53 53 53 54 55 57 58 60 62 64 66 68 69 71 72 74 75 76 78 79 82 84 87 89 92 94 96 98 101 103 106 111 116
43 45 46 48 49 51 54 56 57 57 56 55 55 55 56 58 59 61 63 66 68 69 71 73 74 75 76 76 78 80 83 85 88 91 93 96 97 99 99 100 104 110 117
47 48 50 51 53 54 57 59 60 59 58 57 57 57 57 59 60 62 65 67 69 71 72 74 75 76 76 77 79 81 84 86 89 90 92 94 94 94 93 94 98 104 113
50 52 53 54 56 58 60 62 62 61 60 59 59 59 60 60 61 63 65 68 70 71 73 75 76 77 78 79 80 82 84 86 87 88 88 88 87 86 85 87 90 96 105
54 55 56 58 59 61 62 64 64 63 61 60 60 61 62 63 64 65 66 68 71 72 74 75 77 79 80 81 82 83 83 84 84 83 82 81 79 78 77 78 81 87 95
57 58 59 60 62 63 64 66 65 63 62 61 61 62 63 65 66 66 67 69 70 72 74 76 78 80 82 83 83 83 82 81 80 78 75 74 71 70 68 69 72 77 86
60 61 62 63 64 65 66 67 65 64 63 62 63 63 64 65 67 67 67 69 70 73 75 76 78 80 82 83 83 82 80 78 75 72 70 67 65 63 61 60 63 67 77
62 63 64 66 66 67 67 67 65 64 64 64 64 64 65 66 68 69 68 69 70 71 74 76 78 80 81 82 81 80 78 74 71 68 65 62 60 59 57 55 57 61 70
64 64 66 67 67 67 67 67 66 66 65 64 65 66 66 67 69 70 70 70 69 70 72 75 78 80 80 80 79 77 74 70 67 64 61 59 57 56 54 52 54 58 66
66 66 67 67 68 67 67 67 67 66 65 65 66 67 67 68 69 71 71 71 71 70 71 73 76 78 79 78 77 76 71 67 63 60 58 56 54 53 51 50 51 55 63
66 66 66 67 67 67 68 68 67 66 66 66 67 67 67 68 70 71 72 73 72 71 70 71 74 75 75 75 74 73 69 64 61 58 55 53 52 49 47 46 48 54 61
66 66 66 67 67 68 68 68 67 67 67 67 67 67 68 68 69 71 72 72 72 73 72 71 72 72 72 72 71 69 66 62 59 56 54 52 50 46 44 43 46 52 60
65 65 66 67 68 68 68 67 67 67 66 67 66 67 67 68 69 70 71 71 72 73 74 71 70 70 69 69 67 65 62 60 58 55 53 51 48 45 42 41 44 50 58
64 65 66 67 68 67 67 66 66 66 66 66 66 67 66 67 68 69 70 70 71 72 73 72 70 68 66 65 64 61 59 58 56 53 51 50 48 44 40 40 43 50 58
65 65 66 66 66 66 66 65 65 65 65 65 65 65 65 66 67 68 69 69 70 71 71 72 69 66 63 62 61 59 57 56 54 52 50 48 47 43 39 39 43 50 59
64 64 64 65 64 64 64 64 64 64 63 63 63 63 64 65 66 67 67 68 69 69 69 70 68 65 62 61 60 58 56 54 52 51 49 47 45 40 38 38 43 51 60
61 61 61 62 62 62 62 62 62 61 61 61 61 62 63 64 65 66 66 66 67 67 67 68 66 64 61 60 58 57 55 52 49 49 48 45 43 38 36 37 42 52 62
57 57 59 60 60 59 59 59 59 59 59 60 60 61 62 63 64 64 65 65 65 65 66 66 64 62 60 58 57 55 54 51 47 46 47 42 41 37 34 35 41 53 63
56 57 57 57 56 56 57 58 58 58 57 57 59 59 60 61 62 62 63 62 61 62 63 63 61 60 58 56 55 53 51 49 46 43 44 40 38 35 32 33 40 53 65
55 55 55 55 56 56 57 57 57 57 56 57 57 58 59 60 60 61 60 59 58 58 59 59 58 57 55 54 53 52 49 46 42 41 41 38 35 33 29 29 38 53 65
54 55 55 55 55 56 56 57 57 56 56 56 57 57 57 58 58 59 59 57 56 56 56 55 54 54 53 51 51 50 47 44 40 38 38 36 32 29 25 26 35 52 66
55 55 56 56 56 56 56 57 56 56 56 55 56 55 56 57 57 57 57 55 54 54 53 52 51 50 49 48 48 47 45 41 39 36 35 33 29 26 21 23 33 50 66
Wind_Direction
316 318 319 319 318 316 314 311 307 303 300 297 294 292 291 290 290 290 290 290 289 289 288 287 286 285 284 283 281 279 277 274 272 269 265 262 259 256 252 249 248 249 249
313 315 316 318 318 318 317 315 311 307 303 300 297 295 293 292 291 292 292 292 292 292 291 290 290 289 288 287 286 284 282 280 278 275 272 269 264 261 256 251 248 246 246
310 311 313 315 317 317 317 316 314 311 307 303 300 297 295 294 293 293 294 294 294 294 294 293 293 292 291 290 289 288 287 285 283 280 278 275 271 267 262 256 251 246 244
308 309 310 312 314 315 316 316 315 312 309 306 303 299 297 296 295 296 296 296 296 296 295 295 295 294 294 293 293 292 290 289 287 285 283 281 277 272 267 261 254 248 243
307 308 309 310 311 313 314 315 314 312 309 306 304 301 299 298 298 298 298 297 297 297 297 296 296 296 296 295 295 294 293 292 291 289 287 284 281 276 271 264 255 247 242
305 307 308 309 309 311 312 313 313 311 308 306 304 302 301 300 300 299 299 298 298 298 298 298 298 297 297 297 297 297 296 295 294 292 290 287 284 279 273 264 255 246 240
304 305 306 307 308 309 310 311 311 310 308 305 303 302 301 301 301 300 300 299 299 299 299 299 299 299 299 299 300 300 299 298 296 294 292 289 285 279 272 263 254 246 238
302 303 304 305 306 307 309 309 309 308 307 305 303 301 300 300 299 300 300 300 300 300 301 302 302 302 302 302 303 302 301 300 298 296 293 290 285 279 272 264 255 246 238
300 301 302 303 304 306 307 307 307 307 306 304 303 302 302 301 300 300 300 301 301 302 303 304 305 305 305 305 305 305 303 302 300 297 294 290 286 280 273 265 256 246 238
298 300 300 301 302 304 305 305 305 305 305 304 303 303 303 302 301 300 300 301 302 303 304 305 306 307 307 307 307 306 305 303 301 298 295 292 287 281 273 265 255 245 236
297 298 298 299 300 302 303 303 304 304 304 304 304 303 303 302 302 301 302 303 304 305 306 306 307 308 308 308 308 308 306 304 302 299 296 293 288 282 274 266 254 243 234
296 297 296 297 299 300 301 302 303 304 304 304 304 303 303 303 303 303 303 304 305 306 307 308 308 309 309 309 309 308 307 305 302 300 297 294 289 282 274 265 252 240 230
294 294 294 296 297 299 300 302 303 304 304 304 304 304 303 303 304 304 305 306 306 307 308 309 309 310 310 309 309 308 307 305 302 300 298 295 291 284 275 265 251 236 227
293 292 293 295 297 298 300 302 303 304 304 304 304 304 304 304 304 305 306 306 307 308 309 310 310 311 310 310 310 309 308 305 303 301 299 296 292 286 277 266 250 233 223
291 292 293 295 296 298 300 301 303 303 304 304 304 304 304 304 304 305 307 307 308 309 311 312 311 311 311 310 310 309 308 306 304 302 299 297 293 287 278 266 248 231 220
291 293 294 296 297 298 300 302 303 303 303 303 303 304 304 304 305 306 307 308 309 310 312 313 313 312 311 311 310 309 308 306 305 303 300 298 294 287 278 264 245 229 218
292 294 295 297 298 299 300 301 302 302 301 302 303 303 304 304 305 306 307 308 309 311 313 314 314 313 312 312 311 309 309 307 306 304 301 299 295 288 277 261 241 226 216
293 294 296 297 298 299 299 300 300 300 300 301 302 302 302 303 305 306 307 309 310 312 313 315 316 315 314 313 312 310 309 308 307 304 301 300 296 288 277 258 238 222 213
294 295 296 296 297 297 298 298 298 298 299 300 301 302 302 303 305 307 308 309 311 312 313 315 316 316 315 314 312 312 311 309 307 304 301 300 297 288 277 255 235 220 210
294 294 295 296 296 296 296 296 297 298 298 299 300 301 302 304 305 307 308 309 311 312 314 315 316 317 316 316 314 314 313 311 308 305 303 301 298 288 277 255 234 218 209
294 295 296 296 296 296 296 296 296 297 298 299 299 300 302 304 305 307 308 310 311 313 314 315 317 318 318 318 317 316 315 313 310 306 304 303 299 290 276 254 234 217 207
294 295 297 297 297 297 297 296 297 298 299 299 300 301 302 304 305 307 308 310 312 314 315 316 318 319 319 318 318 318 317 315 313 308 305 305 300 292 276 255 231 214 206
295 296 297 298 298 298 297 297 298 298 298 299 300 301 302 304 305 307 309 311 312 314 316 317 319 319 319 319 319 319 318 317 315 311 308 307 301 295 277 255 229 213 204
296 297 297 298 298 298 297 298 298 297 298 298 299 300 302 304 305 307 309 311 313 315 316 317 318 319 319 319 320 320 320 319 317 314 311 310 304 297 280 254 227 210 202
298 298 298 298 298 297 298 298 297 298 298 298 298 300 302 304 305 307 309 312 314 315 316 318 319 319 320 320 321 322 322 320 320 317 314 313 309 301 283 252 225 209 200
299 299 299 298 298 298 297 298 297 297 297 297 297 299 301 303 305 307 310 313 314 316 318 319 319 319 320 321 322 322 322 322 322 321 318 316 314 306 286 249 222 207 199
Height
5817 5814 5810 5806 5803 5799 5795 5791 5787 5783 5778 5774 5770 5766 5762 5759 5756 5752 5749 5746 5743 5740 5737 5734 5731 5728 5725 5722 5720 5718 5717 5716 5715 5715 5716 5719 5722 5726 5730 5736 5741 5747 5753
5810 5807 5803 5799 5795 5790 5786 5782 5777 5773 5768 5763 5759 5754 5750 5746 5742 5738 5734 5731 5727 5723 5719 5716 5712 5709 5705 5701 5698 5695 5692 5690 5688 5688 5688 5689 5692 5696 5700 5706 5713 5720 5728
5803 5799 5795 5791 5786 5781 5777 5772 5767 5762 5757 5752 5747 5742 5737 5732 5727 5723 5719 5714 5710 5706 5702 5697 5693 5689 5684 5679 5675 5670 5666 5662 5659 5657 5657 5657 5659 5661 5666 5672 5679 5688 5698
5795 5791 5786 5782 5777 5772 5767 5762 5756 5751 5746 5740 5735 5729 5723 5718 5713 5708 5703 5697 5693 5688 5683 5678 5673 5668 5662 5657 5651 5645 5639 5634 5630 5626 5624 5622 5622 5623 5626 5631 5639 5650 5662
5786 5782 5777 5773 5767 5762 5757 5751 5745 5739 5734 5728 5722 5716 5710 5704 5698 5692 5687 5681 5675 5670 5664 5659 5653 5647 5641 5635 5628 5621 5614 5607 5600 5594 5589 5585 5583 5582 5582 5586 5594 5606 5620
5777 5772 5767 5762 5757 5751 5746 5740 5734 5728 5721 5715 5709 5703 5696 5690 5683 5677 5670 5664 5657 5651 5644 5638 5633 5627 5620 5613 5605 5597 5588 5579 5570 5562 5555 5548 5543 5539 5537 5540 5547 5558 5574
5767 5762 5757 5751 5746 5740 5734 5728 5721 5715 5708 5701 5695 5690 5684 5677 5669 5661 5654 5647 5639 5632 5625 5618 5611 5605 5598 5591 5582 5572 5562 5551 5540 5530 5520 5511 5503 5498 5495 5496 5502 5512 5526
5757 5751 5745 5740 5734 5728 5722 5715 5708 5701 5695 5688 5681 5675 5669 5664 5658 5649 5639 5630 5621 5613 5605 5597 5589 5581 5574 5567 5558 5547 5535 5522 5510 5498 5486 5476 5467 5461 5457 5457 5461 5470 5482
5745 5740 5734 5728 5722 5716 5709 5702 5695 5688 5681 5674 5667 5660 5653 5647 5640 5634 5625 5613 5603 5594 5585 5576 5567 5557 5549 5540 5531 5520 5507 5494 5481 5467 5455 5445 5436 5429 5424 5423 5425 5432 5443
5733 5728 5721 5715 5709 5703 5696 5689 5682 5675 5667 5660 5653 5645 5638 5630 5623 5616 5609 5598 5587 5576 5566 5556 5545 5534 5524 5514 5504 5492 5480 5466 5454 5441 5428 5418 5409 5402 5397 5395 5396 5401 5410
5720 5714 5708 5701 5695 5689 5682 5675 5668 5661 5653 5645 5638 5630 5622 5613 5604 5598 5592 5581 5570 5557 5546 5535 5524 5513 5501 5489 5478 5466 5453 5441 5428 5416 5405 5395 5386 5379 5374 5371 5372 5375 5384
5707 5700 5693 5687 5681 5675 5667 5660 5653 5646 5638 5630 5622 5613 5605 5596 5587 5578 5572 5564 5554 5541 5527 5514 5502 5491 5479 5466 5455 5442 5430 5418 5406 5395 5384 5374 5365 5358 5354 5351 5350 5354 5361
5693 5686 5678 5673 5666 5659 5652 5645 5637 5630 5622 5614 5606 5597 5588 5579 5569 5560 5552 5544 5536 5526 5511 5496 5481 5469 5457 5445 5433 5420 5409 5397 5386 5375 5365 5355 5347 5339 5335 5331 5331 5334 5342
5677 5670 5664 5657 5651 5644 5637 5629 5622 5614 5606 5598 5589 5580 5571 5561 5551 5541 5532 5523 5516 5508 5496 5480 5463 5449 5436 5423 5411 5399 5388 5378 5367 5357 5347 5338 5329 5321 5316 5313 5313 5317 5325
5661 5655 5648 5642 5635 5628 5621 5614 5606 5598 5590 5582 5573 5563 5554 5544 5534 5524 5514 5503 5494 5487 5479 5465 5447 5432 5417 5404 5391 5378 5368 5359 5349 5339 5330 5321 5312 5305 5300 5297 5298 5302 5310
5645 5639 5633 5626 5619 5612 5605 5598 5591 5582 5574 5565 5556 5547 5537 5527 5517 5507 5496 5485 5474 5464 5457 5447 5431 5416 5401 5387 5373 5360 5350 5340 5332 5322 5313 5304 5297 5290 5284 5282 5283 5288 5296
5629 5623 5617 5610 5604 5597 5589 5582 5575 5566 5558 5549 5540 5530 5521 5510 5500 5490 5479 5468 5457 5445 5436 5428 5413 5400 5385 5370 5357 5344 5333 5323 5314 5305 5296 5288 5281 5275 5270 5268 5269 5274 5283
5614 5608 5601 5594 5588 5581 5573 5566 5558 5550 5541 5533 5523 5514 5504 5494 5484 5474 5463 5452 5440 5428 5417 5408 5397 5383 5369 5355 5342 5330 5319 5308 5298 5290 5281 5273 5266 5260 5256 5254 5256 5261 5270
5598 5592 5585 5578 5571 5564 5557 5549 5541 5533 5525 5516 5507 5498 5488 5479 5469 5458 5447 5436 5425 5413 5400 5389 5380 5368 5355 5341 5327 5317 5305 5294 5284 5274 5266 5258 5251 5246 5242 5241 5243 5248 5257
5583 5576 5569 5562 5555 5548 5540 5533 5525 5517 5509 5501 5491 5482 5473 5464 5454 5443 5432 5421 5409 5398 5386 5374 5363 5352 5340 5326 5313 5302 5292 5281 5270 5260 5251 5244 5237 5232 5228 5227 5230 5235 5245
5566 5559 5552 5546 5538 5531 5524 5516 5509 5501 5493 5485 5476 5467 5458 5449 5439 5428 5418 5407 5395 5383 5372 5359 5348 5336 5324 5312 5299 5287 5277 5267 5258 5245 5237 5231 5223 5218 5215 5214 5217 5223 5233
5551 5544 5537 5529 5522 5515 5508 5500 5493 5485 5477 5469 5461 5452 5443 5434 5424 5414 5403 5392 5381 5369 5357 5345 5334 5322 5311 5299 5287 5275 5263 5254 5246 5237 5223 5218 5210 5205 5202 5201 5204 5210 5220
5535 5529 5521 5514 5507 5500 5492 5484 5477 5470 5462 5455 5446 5438 5429 5420 5410 5401 5390 5379 5368 5355 5344 5332 5321 5310 5298 5288 5276 5266 5254 5242 5233 5224 5213 5207 5199 5193 5189 5188 5191 5198 5209
5520 5513 5506 5499 5492 5485 5477 5469 5461 5454 5448 5440 5432 5424 5416 5407 5397 5387 5378 5368 5356 5345 5333 5322 5310 5299 5288 5276 5265 5254 5243 5234 5224 5214 5203 5196 5189 5183 5178 5177 5180 5187 5198
5505 5498 5491 5484 5477 5470 5462 5454 5446 5440 5433 5426 5418 5410 5402 5394 5384 5374 5366 5357 5346 5335 5323 5311 5300 5288 5277 5266 5255 5244 5234 5224 5216 5207 5196 5187 5180 5174 5170 5169 5171 5178 5189
5491 5483 5476 5469 5462 5455 5447 5439 5431 5425 5419 5412 5404 5397 5389 5380 5372 5362 5353 5344 5334 5324 5313 5302 5291 5280 5269 5258 5247 5236 5226 5216 5208 5200 5190 5181 5173 5167 5163 5162 5163 5170 5182